Terminal Aerodrome Forecast
Issued by NWS State College, PA

Home | Current Version | Previous Version | Text Only | Print | Product List | Glossary On
Versions: 1 2 3 4 5 6 7 8 9 10 11 12 13 14 15 16 17 18 19 20 21 22 23 24 25 26 27 28 29 30 31 32 33 34 35 36 37 38 39 40 41 42 43 44 45 46 47 48 49 50
000
FTUS41 KCTP 241739
TAFMDT
TAF
KMDT 241739Z 2418/2518 19008G15KT P6SM SCT050
     FM250000 17007KT P6SM SCT040
     FM250800 16005KT P6SM VCSH OVC020
     FM251500 15009G15KT 6SM BR VCSH OVC009
     FM251700 17010G22KT 2SM -TSRA OVC012CB=

USA.gov is the U.S. government's official web portal to all federal, state and local government web resources and services.